Regional Weather Roundup
Issued by NWS

Home | Current Version | Previous Version | Graphics & Text | Print | Product List | Glossary On
Versions: 1 2 3 4 5 6 7 8 9 10 11 12 13 14 15 16 17 18 19 20 21 22 23 24 25 26 27 28 29 30 31 32 33 34 35 36 37 38 39 40 41 42 43 44 45 46 47 48 49 50
036
ASUS44 KJAN 272003
RWRMS

MISSISSIPPI HOURLY WEATHER ROUNDUP
NATIONAL WEATHER SERVICE JACKSON MS
300 PM CDT WED AUG 27 2014

NOTE: "FAIR: INDICATES FEW OR NO CLOUDS BELOW 12,000 FEET WITH NO
SIGNIFICANT WEATHER AND/OR OBSTRUCTIONS TO VISIBILITY.

MSZ001>002-007>008-010>013-018>021-025>028-034>036-272100-
NORTHWEST MISSISSIPPI

CITY           SKY/WX    TMP DP  RH WIND       PRES   REMARKS
CLARKSDALE     FAIR      91  68  46 E7        30.05F HX  95
CLEVELAND      FAIR      92  67  44 NW6       30.03F HX  95
GREENWOOD      MOSUNNY   93  63  36 NE3       30.03F HX  94
GREENVILLE     MOSUNNY   94  63  35 CALM      30.02F HX  95
GRENADA        FAIR      91  61  35 E7        30.04F HX  91
OXFORD         FAIR      90  63  40 CALM      30.07F HX  90
TUNICA         PTCLDY    90  63  40 NE3       30.06S HX  90
$$

MSZ003>006-009-014>017-022>024-029>033-037>039-272100-
NORTHEAST MISSISSIPPI

CITY           SKY/WX    TMP DP  RH WIND       PRES   REMARKS
BELMONT        FAIR      89  64  44 E6        30.07F HX  90
COLUMBUS AFB   MOSUNNY   91  59  34 VRB2      30.04F HX  90
CORINTH        FAIR      90  63  40 SE8       30.06F HX  90
GOLDN TRIANGLE MOSUNNY   93  63  36 N13       30.05F HX  94
STARKVILLE     FAIR      90  57  33 N3        30.04F
TUPELO         MOSUNNY   91  60  35 VRB7      30.05F HX  90
$$

MSZ040-058-272100-
CENTRAL MISSISSIPPI

CITY           SKY/WX    TMP DP  RH WIND       PRES   REMARKS
JACKSON INTL   MOSUNNY   92  64  39 E7        30.03F HX  93
JACKSON HAWKNS SUNNY     93  62  35 N9        30.03F HX  93
MERIDIAN KEY   MOSUNNY   94  54  25 NW5       30.02F HX  92
MERIDIAN NAS   MOSUNNY   91  58  32 E5        30.03F HX  90
RAYMOND        FAIR      91  86  84 NE5       30.03F HX 122
VICKSBURG      SUNNY     93  66  40 E8        30.01F HX  96
$$

MSZ059>079-272100-
SOUTH MISSISSIPPI

CITY           SKY/WX    TMP DP  RH WIND       PRES   REMARKS
BROOKHAVEN     FAIR      90  68  48 CALM      30.04F HX  93
COLUMBIA       FAIR      93  66  40 MISG      29.99F HX  96
HATTIESBURG    MOSUNNY   93  65  39 CALM      30.00F HX  95
MCCOMB         MOSUNNY   93  67  42 MISG      30.01F HX  96
NATCHEZ        MOSUNNY   90  72  55 N7        30.01F HX  96
PINE BELT      PTSUNNY   91  63  38 NE7       30.03F HX  92
$$

MSZ080>082-272100-
COASTAL MISSISSIPPI

CITY           SKY/WX    TMP DP  RH WIND       PRES   REMARKS
BAY ST LOUIS   MOSUNNY  N/A N/A N/A SE9G16    30.00F
BILOXI         CLOUDY    87  73  64 SE8       30.01F HX  94
PASCAGOULA     CLOUDY    87  73  62 S14       30.00F HX  94
GULFPORT       MOSUNNY   90  73  57 SE18      30.00F HX  98
$$



USA.gov is the U.S. government's official web portal to all federal, state and local government web resources and services.